Flagstaff, AZ

11:28 PM MST on February 22, 2018 (GMT -0700)
Flagstaff Pulliam

Weather History for KFLG - May, 2014

Change the Weather History Date:

Monday, May 5, 2014

  Actual Average Record
Temperature  
Mean Temperature 59 °F 49 °F  
Max Temperature 70 °F 64 °F 86 °F (1947)
Min Temperature 48 °F 33 °F 18 °F (1950)
Degree Days  
Heating Degree Days 6 16  
Month to date heating degree days 60 84  
Since 1 July heating degree days 6061 6440  
Cooling Degree Days 0 0  
Month to date cooling degree days 0 0  
Year to date cooling degree days 0 0  
Growing Degree Days 9 (Base 50)    
Moisture  
Dew Point 16 °F    
Average Humidity 20    
Maximum Humidity 26    
Minimum Humidity 14    
Precipitation  
Precipitation 0.00 in 0.02 in 0.55 in (1992)
Month to date precipitation 0.00 0.12  
Year to date precipitation 3.09 7.60  
Snow  
Snow 0.00 in 0.00 in 4.60 in (1969)
Month to date snowfall 0.0 0.3  
Since 1 July snowfall 44.0 101.3  
Snow Depth 0.00 in    
Sea Level Pressure  
Sea Level Pressure 29.83 in    
Wind  
Wind Speed 15 mph (SW)    
Max Wind Speed 32 mph    
Max Gust Speed 42 mph    
Visibility 10 miles    
Events      
T = Trace of Precipitation, MM = Missing Value Source: NWS Daily Summary

Daily Weather History Graph

Daily Weather History Graph

Search for Another Location

Airport or City:

Trip Planner

Search our weather history database for the weather conditions in past years. The results will help you decide how hot, cold, wet, or windy it might be!

Date:

Astronomy

May. 05, 2014 Rise Set
Actual Time 5:31 AM MST 7:15 PM MST
Civil Twilight 5:04 AM MST 7:43 PM MST
Nautical Twilight 4:31 AM MST 8:16 PM MST
Astronomical Twilight 3:56 AM MST 8:51 PM MST
Moon 10:53 AM MST (5/5) 12:02 AM MST (5/5)
Length of Visible Light 14h 39m
Length of Day
13h 44m
Waxing Crescent, 37% of the Moon is Illuminated
May 5
Waxing Crescent
May 6
First Quarter
May 14
Full
May 21
Last Quarter
May 28
New

Hourly Weather History & Observations

Time (MST) Temp. Dew Point Humidity Pressure Visibility Wind Dir Wind Speed Gust Speed Precip Events Conditions
12:57 AM 55.0 °F 10.9 °F 17% 29.89 in 10.0 mi West 8.1 mph - N/A   Clear
1:57 AM 54.0 °F 12.0 °F 19% 29.88 in 10.0 mi West 9.2 mph - N/A   Clear
2:57 AM 53.1 °F 12.9 °F 20% 29.87 in 10.0 mi Variable 5.8 mph - N/A   Clear
3:57 AM 48.0 °F 15.1 °F 27% 29.89 in 10.0 mi West 3.5 mph - N/A   Clear
4:57 AM 52.0 °F 12.0 °F 20% 29.88 in 10.0 mi WSW 8.1 mph - N/A   Clear
5:57 AM 51.1 °F 12.0 °F 21% 29.89 in 10.0 mi West 8.1 mph - N/A   Clear
6:57 AM 55.0 °F 15.1 °F 21% 29.89 in 10.0 mi WSW 10.4 mph - N/A   Clear
7:57 AM 57.9 °F 16.0 °F 19% 29.90 in 10.0 mi SW 17.3 mph - N/A   Clear
8:57 AM 57.9 °F 16.0 °F 19% 29.91 in 10.0 mi SW 15.0 mph - N/A   Clear
9:57 AM 61.0 °F 16.0 °F 17% 29.90 in 10.0 mi SSW 18.4 mph 21.9 mph N/A   Clear
10:57 AM 64.9 °F 19.0 °F 17% 29.89 in 10.0 mi SW 15.0 mph 23.0 mph N/A   Clear
11:57 AM 66.9 °F 17.1 °F 15% 29.86 in 10.0 mi WSW 20.7 mph 28.8 mph N/A   Clear
12:57 PM 69.1 °F 18.0 °F 14% 29.83 in 10.0 mi SW 19.6 mph 31.1 mph N/A   Clear
1:57 PM 70.0 °F 19.0 °F 14% 29.81 in 10.0 mi SSW 19.6 mph 28.8 mph N/A   Clear
2:57 PM 69.1 °F 19.0 °F 15% 29.79 in 10.0 mi SSW 20.7 mph 34.5 mph N/A   Clear
3:57 PM 66.9 °F 17.1 °F 15% 29.79 in 10.0 mi SW 24.2 mph 39.1 mph N/A   Clear
4:57 PM 64.9 °F 17.1 °F 16% 29.77 in 10.0 mi SW 25.3 mph 34.5 mph N/A   Clear
5:57 PM 64.0 °F 16.0 °F 16% 29.77 in 10.0 mi SSW 25.3 mph 33.4 mph N/A   Clear
6:57 PM 60.1 °F 14.0 °F 16% 29.77 in 10.0 mi SW 20.7 mph 33.4 mph N/A   Clear
7:57 PM 57.0 °F 14.0 °F 18% 29.78 in 10.0 mi SSW 13.8 mph 24.2 mph N/A   Clear
8:57 PM 55.0 °F 14.0 °F 20% 29.77 in 10.0 mi SW 12.7 mph 21.9 mph N/A   Clear
9:57 PM 55.9 °F 15.1 °F 20% 29.74 in 10.0 mi SW 13.8 mph 24.2 mph N/A   Clear
10:57 PM 53.1 °F 18.0 °F 25% 29.73 in 10.0 mi SSW 17.3 mph - N/A   Clear
11:57 PM 51.1 °F 17.1 °F 26% 29.70 in 10.0 mi SSW 11.5 mph - N/A   Clear